[[{"header":{"parameterUnit":"m.s-1","parameterCategory":1,"la1":30.2992,"la2":30.254,"lo1":-89.0895,"lo2":-89.0443,"dy":0.0025,"dx":0.0025,"nx":19,"ny":19,"refTime":"2026-04-16T03:00:00:Z","depth":0,"parameterNumber":2,"parameterNumberName":"U-component_of_WINDS"},"data":[0,0,0,-1.0122,-1.012,-1.0019,-1.0019,-0.9907,-0.9906,0,0,0,0,0,0,0,0,0,0,0,-1.0163,-1.0162,-1.0123,-1.012,-1.0019,-1.0019,-0.9907,-0.9906,0,0,0,0,0,0,0,0,0,0,0,-1.0163,-1.0163,-1.0162,-1.012,-1.0019,-1.0019,-0.9907,-0.9977,0,0,0,0,0,0,0,0,0,0,-1.0073,-1.012,-1.0163,-1.0162,-1.0119,-1.002,-1.0019,-0.998,-0.9973,-0.996,0,-0.9952,0,-0.9928,-0.99,-0.99,0,0,0,-1.0112,-1.0126,-1.009,-1.0162,-1.0119,-1.002,-1.0063,-0.9976,-0.9968,-0.9951,-0.995,-0.9946,-0.9926,-0.9899,-0.9899,-0.9855,-0.9855,0,0,-1.0118,-1.015,-1.0096,-1.0085,-1.0102,-1.0066,-1.006,-0.9971,-0.9972,-0.995,-0.9943,-0.9924,-0.9899,-0.9898,-0.9854,-0.9855,0,0,0,-1.0139,-1.0154,-1.0119,-1.009,-1.0071,-1.0063,-1.0056,-0.9976,-0.9962,-0.9941,-0.9923,-0.9898,-0.9897,-0.9854,-0.9854,-0.9895,0,0,0,-1.0142,-1.0167,-1.0122,-1.0141,-1.0073,-1.0022,-1.0064,-0.9968,-0.9957,-0.9923,-0.9898,-0.9896,-0.9854,-0.9854,-0.9893,-0.9908,0,0,0,-1.0166,-1.0169,-1.0158,-1.0143,-1.0101,-1.0023,-1.0003,-0.9965,-0.9946,-0.9899,-0.9896,-0.9854,-0.9854,-0.9892,-0.9906,-0.9907,0,0,0,-1.02,-1.0194,-1.016,-1.0147,-1.0102,-1.0049,-1.0003,-0.9962,-0.9927,-0.9898,-0.9854,-0.9854,-0.9891,-0.9904,-0.9905,-0.9913,-0.9919,0,0,-1.0211,-1.0197,-1.0187,-1.0153,-1.0114,-1.0062,-1.0029,-0.9965,-0.9931,-0.9882,-0.988,-0.9894,-0.9905,-0.9906,-0.9944,-0.9949,0,0,0,-1.0201,-1.0194,-1.0177,-1.0146,-1.0098,-1.0059,-0.9998,-0.9975,-0.9932,-0.9913,-0.9893,-0.9899,-0.9898,-0.9901,-0.9905,-0.9903,-0.9857,-0.9857,-0.9857,-1.0262,-1.022,-1.0201,-1.0147,-1.0118,-1.0056,-1.0028,-0.9986,-0.9951,-0.9947,-0.9932,-0.996,-0.9964,-0.9967,-0.9965,-0.9933,-0.9933,-0.9933,-0.9933,-1.0275,-1.0258,-1.0214,-1.018,-1.0136,-1.0106,-1.0047,-1.0024,-0.999,-0.9968,-0.9965,-0.9943,-0.9975,-0.9971,-0.9936,-0.9936,-0.9935,-0.9935,-0.9935,-1.031,-1.0295,-1.0268,-1.022,-1.0188,-1.0133,-1.0104,-1.0065,-1.0027,-1.0024,-1.0005,-1.0004,-0.9998,-1.0018,-1.0018,-1.0018,-1.0018,-1.0018,-1.0018,-1.0357,-1.0325,-1.0305,-1.0256,-1.0232,-1.0195,-1.0135,-1.011,-1.0072,-1.0046,-1.0046,-1.0012,-0.9986,-0.998,-1.002,-1.002,-1.0019,-1.0019,-1.0019,-1.0385,-1.0372,-1.0342,-1.0318,-1.0258,-1.023,-1.0181,-1.0134,-1.0108,-1.0095,-1.0062,-1.0049,-1.0032,-1.0028,-1.0023,-1.0071,-1.0071,-1.0071,-1.0071,-1.0414,-1.0402,-1.0363,-1.0327,-1.0288,-1.0242,-1.0209,-1.0164,-1.0114,-1.0096,-1.0083,-1.0073,-1.0071,-1.0055,-1.005,-1.0045,-1.0098,-1.0098,-1.0098,-1.0429,-1.0412,-1.0392,-1.0344,-1.0295,-1.0254,-1.0223,-1.0185,-1.0126,-1.0098,-1.008,-1.0079,-1.0063,-1.006,-1.003,-1.0024,-1.0013,0,0]},{"header":{"parameterUnit":"m.s-1","parameterCategory":1,"la1":30.2992,"la2":30.254,"lo1":-89.0895,"lo2":-89.0443,"dy":0.0025,"dx":0.0025,"nx":19,"ny":19,"refTime":"2026-04-16T03:00:00:Z","depth":0,"parameterNumber":3,"parameterNumberName":"V-component_of_WINDS"},"data":[0,0,0,3.5582,3.558,3.546,3.5459,3.5299,3.5298,0,0,0,0,0,0,0,0,0,0,0,3.5617,3.5616,3.5582,3.5579,3.546,3.5459,3.53,3.5298,0,0,0,0,0,0,0,0,0,0,0,3.5617,3.5616,3.5615,3.5579,3.546,3.5459,3.53,3.5392,0,0,0,0,0,0,0,0,0,0,3.5509,3.5541,3.5616,3.5615,3.5578,3.546,3.5459,3.5396,3.5386,3.5352,0,3.5325,0,3.5309,3.5287,3.5287,0,0,0,3.5578,3.555,3.5519,3.5615,3.5577,3.546,3.5514,3.5391,3.5379,3.5338,3.5322,3.5316,3.5306,3.5286,3.5285,3.5099,3.5099,0,0,3.5585,3.5594,3.5527,3.5511,3.5533,3.5517,3.551,3.5384,3.5365,3.5322,3.5313,3.5304,3.5285,3.5284,3.51,3.5099,0,0,0,3.5605,3.5598,3.5571,3.5518,3.5497,3.5514,3.5505,3.5371,3.5361,3.5311,3.5302,3.5284,3.5282,3.5101,3.51,3.5068,0,0,0,3.5608,3.561,3.5573,3.5578,3.5499,3.5433,3.5495,3.537,3.5355,3.5303,3.5284,3.5281,3.5102,3.51,3.5071,3.5051,0,0,0,3.5625,3.5612,3.5595,3.5578,3.5528,3.5435,3.5418,3.5367,3.535,3.5286,3.528,3.5103,3.5101,3.5074,3.5055,3.5005,0,0,0,3.5643,3.5566,3.5595,3.5505,3.5529,3.5418,3.5419,3.5335,3.5277,3.5283,3.5102,3.51,3.5075,3.5058,3.5008,3.4964,3.4947,0,0,3.5551,3.5556,3.5502,3.5524,3.5411,3.5436,3.5316,3.5253,3.5236,3.5145,3.514,3.507,3.5055,3.5005,3.485,3.4837,0,0,0,3.5476,3.5437,3.5405,3.5353,3.5306,3.5262,3.5217,3.5193,3.5116,3.5193,3.5039,3.503,3.5,3.4978,3.4967,3.494,3.5091,3.5091,3.5091,3.5355,3.5343,3.5253,3.5226,3.5175,3.513,3.5086,3.5046,3.5045,3.5009,3.4981,3.4889,3.4864,3.4856,3.4828,3.4958,3.4958,3.4958,3.4958,3.5218,3.5161,3.5166,3.508,3.5066,3.4993,3.4946,3.4948,3.4876,3.4909,3.4881,3.4917,3.4842,3.4816,3.4955,3.4956,3.4956,3.4956,3.4956,3.5136,3.5107,3.5083,3.5007,3.4948,3.4922,3.4854,3.4843,3.4831,3.4804,3.4773,3.4774,3.4772,3.4791,3.479,3.479,3.479,3.479,3.4789,3.5061,3.5035,3.4981,3.4926,3.4891,3.4843,3.4799,3.4763,3.472,3.4716,3.4716,3.4718,3.4838,3.4868,3.4784,3.4785,3.4786,3.4786,3.4787,3.4924,3.4954,3.487,3.4836,3.477,3.4713,3.4701,3.4629,3.4597,3.4563,3.4572,3.4663,3.4665,3.4674,3.4699,3.4576,3.4576,3.4576,3.4576,3.4855,3.4857,3.4769,3.4715,3.466,3.4641,3.4544,3.4508,3.4475,3.4454,3.447,3.4502,3.4512,3.4508,3.4521,3.4543,3.4384,3.4384,3.4384,3.4769,3.4766,3.4687,3.4659,3.4607,3.4562,3.447,3.4404,3.4372,3.4376,3.4437,3.4445,3.4497,3.4514,3.4517,3.4537,3.4578,0,0]}]]